TimeCDT,TemperatureF,Dew PointF,Humidity,Sea Level PressureIn,VisibilityMPH,Wind Direction,Wind SpeedMPH,Gust SpeedMPH,PrecipitationIn,Events,Conditions,WindDirDegrees,DateUTC
12:53 AM,51.1,48.9,92,30.11,10.0,Calm,Calm,-,N/A,,Clear,0,2012-10-10 05:53:00
1:53 AM,50.0,48.0,93,30.12,10.0,Calm,Calm,-,N/A,,Clear,0,2012-10-10 06:53:00
2:53 AM,51.1,48.0,89,30.10,10.0,Calm,Calm,-,N/A,,Clear,0,2012-10-10 07:53:00
3:53 AM,51.1,48.9,92,30.11,10.0,Calm,Calm,-,N/A,,Clear,0,2012-10-10 08:53:00
4:53 AM,52.0,48.9,89,30.11,10.0,Calm,Calm,-,N/A,,Scattered Clouds,0,2012-10-10 09:53:00
5:53 AM,55.0,51.1,86,30.14,10.0,Calm,Calm,-,N/A,,Overcast,0,2012-10-10 10:53:00
6:53 AM,55.0,52.0,89,30.17,10.0,Calm,Calm,-,N/A,,Overcast,0,2012-10-10 11:53:00
7:53 AM,57.0,53.1,87,30.18,10.0,Calm,Calm,-,N/A,,Overcast,0,2012-10-10 12:53:00
8:53 AM,60.1,51.1,72,30.19,10.0,West,3.5,-,N/A,,Overcast,270,2012-10-10 13:53:00
9:53 AM,64.0,52.0,65,30.19,10.0,Calm,Calm,-,N/A,,Mostly Cloudy,0,2012-10-10 14:53:00
10:53 AM,70.0,53.1,55,30.19,10.0,NW,10.4,-,N/A,,Scattered Clouds,310,2012-10-10 15:53:00
11:53 AM,72.0,54.0,53,30.18,10.0,NW,9.2,16.1,N/A,,Scattered Clouds,310,2012-10-10 16:53:00
12:53 PM,73.9,55.9,53,30.16,10.0,Variable,6.9,-,N/A,,Partly Cloudy,0,2012-10-10 17:53:00
1:53 PM,73.9,57.0,55,30.14,10.0,WNW,10.4,-,N/A,,Partly Cloudy,290,2012-10-10 18:53:00
2:53 PM,75.9,57.0,52,30.13,10.0,NNW,10.4,-,N/A,,Scattered Clouds,330,2012-10-10 19:53:00
3:53 PM,75.0,57.0,53,30.14,10.0,NNW,10.4,-,N/A,,Mostly Cloudy,330,2012-10-10 20:53:00
4:53 PM,73.0,57.0,57,30.13,10.0,WNW,11.5,-,N/A,,Scattered Clouds,290,2012-10-10 21:53:00
5:53 PM,71.1,57.9,63,30.14,10.0,WNW,6.9,-,N/A,,Scattered Clouds,300,2012-10-10 22:53:00
6:53 PM,66.9,57.9,73,30.16,10.0,North,6.9,-,N/A,,Mostly Cloudy,360,2012-10-10 23:53:00
7:53 PM,66.0,57.9,75,30.18,10.0,North,5.8,-,N/A,,Mostly Cloudy,10,2012-10-11 00:53:00
8:53 PM,63.0,55.9,78,30.20,10.0,North,8.1,-,N/A,,Scattered Clouds,10,2012-10-11 01:53:00
9:53 PM,60.1,55.0,83,30.21,10.0,Calm,Calm,-,N/A,,Partly Cloudy,0,2012-10-11 02:53:00
10:53 PM,57.0,53.1,87,30.21,10.0,Calm,Calm,-,N/A,,Clear,0,2012-10-11 03:53:00
11:53 PM,57.0,54.0,89,30.21,10.0,Calm,Calm,-,N/A,,Clear,0,2012-10-11 04:53:00